EHI
0 0 0 0 0 0 0 0 0 0 0 0 0 2 7 10 11 13 15 20 29 33 35 37 39 39 37 33 30 31 33 33 28 22 19 17 15 13 13 13 11 7 5 4
0 0 0 0 0 0 0 0 0 0 0 0 0 2 5 8 11 14 16 20 26 30 33 36 38 38 36 32 30 32 33 32 27 21 18 16 14 13 12 11 9 7 5 4
0 0 0 0 0 0 0 0 0 0 0 0 0 1 3 6 9 12 15 19 23 27 31 35 36 35 34 32 30 31 32 29 24 19 15 14 13 12 11 10 8 7 6 5
0 0 0 0 0 0 0 0 0 0 0 0 0 1 2 4 7 9 12 16 21 25 29 32 33 32 33 32 30 30 30 27 21 15 13 12 12 12 10 9 8 7 6 5
0 0 0 0 0 0 0 0 0 0 0 0 0 0 2 4 6 8 11 14 18 23 27 30 31 31 32 32 30 28 28 25 19 13 11 11 11 10 8 7 8 7 5 5
0 0 0 0 0 0 0 0 0 0 0 0 0 0 1 2 5 8 11 13 16 21 26 29 30 31 31 30 28 26 25 23 19 14 11 9 8 7 5 5 5 5 5 5
0 0 0 0 0 0 0 0 0 0 0 0 0 0 0 1 3 8 12 14 17 20 24 29 30 29 28 26 24 22 21 20 19 15 11 8 5 5 4 3 3 3 3 4
0 0 0 0 0 0 0 0 0 0 0 0 0 0 1 1 3 8 12 15 18 20 22 26 27 25 23 21 20 19 18 18 17 14 10 6 4 4 3 3 2 2 2 2
0 0 0 0 0 0 0 0 0 0 0 0 0 1 2 3 4 8 12 14 17 19 20 21 21 20 18 17 17 17 16 16 14 12 9 7 5 4 3 2 2 2 1 1
0 0 0 0 0 0 0 0 0 0 0 0 0 1 2 3 4 8 10 11 14 18 19 16 15 16 15 14 15 15 14 14 13 11 9 8 8 6 5 3 3 2 1 1
0 0 0 0 0 0 0 0 0 0 0 0 0 0 1 3 4 6 8 8 10 14 15 13 12 13 14 15 16 14 13 12 11 10 10 9 8 6 6 5 4 3 2 2
0 0 0 0 0 0 0 0 0 0 0 0 0 0 1 3 4 5 5 5 6 9 10 10 11 12 14 14 14 12 11 11 11 10 10 9 7 6 5 5 5 4 2 2
0 0 0 0 0 0 0 0 0 0 0 0 0 0 1 3 4 3 3 3 4 6 7 8 9 10 10 10 9 9 9 9 10 10 10 9 8 6 4 4 4 3 2 2
0 0 0 0 0 0 0 0 0 0 0 0 0 0 1 2 2 2 3 3 4 5 6 7 7 7 6 6 7 7 8 8 9 10 10 10 9 7 4 3 3 3 3 3
0 0 0 0 0 0 0 0 0 0 0 0 0 0 1 1 1 2 3 3 3 4 5 6 6 5 6 6 7 8 8 8 9 9 10 10 9 7 5 4 3 3 3 3
0 0 0 0 0 0 0 0 0 0 0 0 0 0 0 1 1 2 3 3 3 3 4 4 5 6 6 6 7 7 7 8 8 8 8 9 8 7 6 5 3 3 2 2
0 0 0 0 0 0 0 0 0 0 0 0 0 0 0 0 1 2 3 3 3 3 3 3 4 5 6 6 6 6 7 7 6 5 5 6 6 5 4 4 3 2 1 1
0 0 0 0 0 0 0 0 0 0 0 0 0 0 0 0 1 1 2 2 2 2 3 3 3 4 5 6 6 6 6 6 6 4 3 3 4 3 3 3 3 2 1 0
0 0 0 0 0 0 0 0 0 0 0 0 0 0 0 0 0 0 1 1 1 1 2 3 4 4 4 5 6 6 6 6 5 3 2 2 2 1 1 1 2 2 2 1
0 0 0 0 0 0 0 0 0 0 0 0 0 0 0 0 0 0 0 0 0 1 2 3 4 4 4 4 5 6 6 6 4 2 1 0 0 0 0 0 1 1 2 2
0 0 0 0 0 0 0 0 0 0 0 0 0 0 0 0 0 0 0 0 0 1 3 3 3 3 3 4 5 5 4 4 4 2 1 0 0 0 0 0 0 0 1 1
0 0 0 0 0 0 0 0 0 0 0 0 0 0 0 0 0 0 0 0 0 1 2 3 2 1 2 4 5 4 3 4 4 3 1 0 0 0 0 0 0 0 0 0
0 0 0 0 0 0 0 0 0 0 0 0 0 0 0 0 0 0 0 0 0 0 1 2 2 1 2 3 4 3 3 4 4 3 1 0 0 0 0 0 0 0 0 0
0 0 0 0 0 0 0 0 0 0 0 0 0 0 0 0 0 0 0 0 0 0 0 1 1 1 1 2 2 3 3 3 4 3 1 0 0 0 0 0 0 0 0 0
0 0 0 0 0 0 0 0 0 0 0 0 0 0 0 0 0 0 0 0 0 0 0 0 0 0 1 1 1 2 3 3 3 2 1 0 0 0 0 0 0 0 0 0
0 0 0 0 0 0 0 0 0 0 0 0 0 0 0 0 0 0 0 0 0 0 0 0 0 0 0 1 1 1 3 3 3 1 0 0 0 0 0 0 0 0 0 0
Wind_Speed
2 2 6 10 9 8 6 7 9 10 6 2 4 6 7 5 5 6 7 8 9 9 8 8 9 9 8 7 7 6 6 5 5 4 4 3 3 3 3 3 4 5 5 5
2 7 13 9 7 6 7 8 10 8 5 2 3 5 5 5 6 8 8 8 9 7 7 8 8 8 8 8 7 6 6 6 5 4 3 3 3 2 3 3 4 5 5 6
9 10 7 7 7 7 8 8 9 8 6 2 0 5 5 3 2 3 4 6 8 10 10 9 9 8 8 8 8 7 6 6 4 4 3 3 2 2 1 2 3 4 5 6
8 9 7 7 8 7 8 9 8 6 3 4 2 3 6 3 1 2 2 4 6 7 8 9 9 9 9 8 7 6 6 5 4 5 5 5 4 3 3 2 3 3 5 5
7 5 5 7 10 7 8 8 6 5 3 2 2 1 7 3 2 4 3 5 7 8 9 9 10 11 9 8 7 6 5 5 4 4 6 5 3 2 2 2 3 3 3 4
9 6 5 8 8 7 5 3 4 3 3 2 4 2 6 4 4 4 3 4 6 7 8 7 7 7 6 6 6 6 6 5 5 5 5 5 5 4 4 3 4 3 3 3
7 7 6 4 4 5 1 4 4 5 4 5 3 2 6 5 3 4 4 4 6 7 8 8 8 7 7 7 6 6 6 5 4 5 5 5 6 6 6 4 4 4 3 3
3 6 5 4 5 4 3 7 6 4 4 4 3 3 4 3 0 2 3 3 4 6 7 9 9 9 8 8 7 7 7 5 4 4 5 4 4 3 3 4 4 4 3 4
4 6 5 4 3 5 2 3 6 6 2 1 3 3 4 3 3 3 4 3 3 4 5 7 8 7 7 7 7 7 7 5 4 4 4 4 4 3 3 3 3 3 3 3
3 3 6 4 2 2 5 4 4 4 3 3 3 2 3 2 0 1 2 2 2 4 3 3 4 5 6 6 5 5 6 6 5 4 4 4 4 4 4 4 4 4 4 4
2 1 5 3 0 3 1 2 3 3 4 5 3 5 3 4 2 1 2 3 4 4 4 3 3 3 4 4 4 5 5 5 5 5 5 4 4 3 3 4 4 4 4 4
0 3 2 5 5 2 3 3 4 4 3 3 3 4 2 2 1 2 2 3 3 4 4 4 3 3 3 3 4 5 5 4 4 5 4 4 4 4 3 3 3 4 4 5
1 4 2 6 6 5 3 1 2 4 3 2 3 4 3 3 4 3 3 4 4 4 4 3 2 2 3 3 4 4 4 4 4 4 4 4 4 4 4 4 3 3 3 3
4 3 5 5 5 3 2 3 1 3 2 2 3 3 2 3 3 2 3 2 3 4 3 3 2 2 2 2 3 4 3 3 4 4 4 3 3 3 3 3 3 3 3 3
4 1 1 2 2 1 2 2 1 1 3 4 3 3 2 1 1 2 3 4 4 3 3 2 2 2 2 2 2 3 3 3 4 4 4 3 3 3 3 3 2 2 2 3
3 1 1 2 2 3 4 4 2 1 2 3 3 1 1 1 3 4 4 5 5 3 2 2 2 2 2 2 2 2 3 3 4 4 3 3 3 3 3 3 2 2 2 2
1 2 1 2 2 3 3 3 1 1 2 2 2 2 2 3 2 2 3 4 3 2 2 2 2 2 2 1 2 3 3 3 4 4 3 3 3 3 2 2 2 2 2 2
3 2 2 1 2 0 3 1 2 3 3 3 3 3 3 3 1 2 4 4 3 2 2 1 1 1 1 1 2 2 3 3 4 3 3 3 3 2 2 2 2 2 2 2
4 4 2 2 2 1 2 2 1 1 2 3 3 3 2 2 3 3 3 3 2 1 1 0 1 1 1 1 2 2 2 2 3 3 3 3 3 3 2 2 2 2 2 1
4 5 4 2 2 3 3 4 2 3 1 3 2 2 1 2 2 2 2 2 2 2 1 1 1 1 1 1 2 3 3 2 2 3 3 3 3 3 3 3 3 2 2 2
3 3 2 2 2 1 3 5 3 3 3 3 1 1 1 1 3 3 1 2 1 1 1 2 1 1 1 1 2 2 2 2 3 2 2 3 3 3 3 3 2 1 2 2
2 2 1 2 2 4 4 3 2 3 2 1 0 1 1 1 1 1 2 1 1 2 2 2 1 1 1 1 2 2 2 2 2 2 2 2 3 3 2 2 2 2 2 1
2 2 3 3 4 4 1 1 2 2 1 1 1 1 1 2 2 1 1 1 1 1 1 1 1 1 1 1 2 2 2 1 1 1 1 2 2 2 2 2 2 1 1 1
2 1 2 1 1 1 0 1 0 1 1 1 1 1 2 2 2 1 1 1 1 1 1 1 1 1 2 2 1 2 2 1 1 1 1 1 2 2 2 2 3 2 2 2
2 0 1 1 2 1 1 0 1 0 1 1 1 2 3 3 2 1 1 0 0 1 1 1 0 1 2 2 2 2 2 2 1 2 1 1 2 2 2 2 3 3 4 5
1 2 3 4 5 3 4 3 1 1 1 1 1 1 1 2 2 2 1 1 0 1 1 1 1 1 2 2 2 2 1 2 2 2 2 2 2 2 2 2 2 3 4 6
Wind_Direction
236 133 232 232 213 214 248 264 270 269 271 268 244 241 242 231 188 179 175 171 173 172 168 154 149 147 139 138 137 140 139 144 142 143 150 153 162 166 160 159 158 158 154 154
338 249 238 238 240 237 252 265 271 279 272 240 247 260 244 222 207 187 174 169 164 163 159 153 147 148 150 151 151 148 145 150 158 163 162 159 157 168 164 161 159 161 158 161
216 243 241 231 247 252 256 240 250 260 289 309 5 315 296 284 219 169 165 169 163 161 166 162 155 156 156 158 161 159 160 155 159 152 128 113 93 89 109 160 170 172 162 159
241 249 257 253 247 235 260 254 248 253 264 270 187 260 287 272 282 231 203 173 170 166 160 165 162 159 167 172 166 158 160 157 162 153 151 150 159 167 189 177 170 173 168 162
246 248 250 249 242 232 237 256 261 258 224 277 314 184 281 297 274 259 223 192 183 174 166 169 169 169 171 169 162 160 156 160 167 160 160 162 158 167 160 148 151 159 162 162
249 255 228 234 250 234 237 319 334 15 75 284 258 188 270 257 231 240 222 190 173 165 164 164 157 149 149 158 160 169 165 172 171 166 165 161 158 155 149 157 168 168 164 164
283 277 268 252 274 289 54 75 13 352 356 262 264 180 248 266 247 206 191 193 170 164 161 156 152 155 155 160 168 179 176 180 177 170 173 172 169 165 166 168 173 171 168 170
236 276 261 244 207 211 199 147 165 203 231 273 314 229 259 291 22 86 114 162 152 160 166 163 164 164 165 169 175 177 180 181 179 174 174 167 164 162 164 164 160 171 177 178
198 258 279 272 235 170 163 188 177 153 193 241 274 274 313 17 49 62 77 77 129 159 168 164 165 167 172 174 179 176 174 169 174 175 165 158 151 152 156 153 153 165 172 172
171 264 287 289 14 14 153 160 91 118 167 244 262 247 240 279 278 55 85 97 111 128 136 144 167 173 177 177 174 163 159 163 166 161 170 163 157 163 161 149 153 172 174 171
116 173 308 347 242 245 9 63 106 135 164 168 228 263 230 198 199 136 126 128 137 137 142 145 153 167 165 163 159 155 156 155 159 166 159 150 153 149 146 151 165 171 174 171
48 125 273 276 268 233 149 159 144 156 240 174 174 264 325 93 79 101 107 108 113 132 141 140 140 141 146 145 152 155 157 157 164 162 151 151 149 145 146 154 164 165 173 178
85 100 16 331 339 5 42 62 129 149 138 162 170 247 341 34 40 54 79 79 95 107 110 111 111 117 138 147 148 152 153 155 154 148 146 144 146 152 161 161 159 157 166 173
93 115 165 206 239 282 324 342 342 129 160 193 196 206 306 359 27 41 68 66 89 93 99 100 95 105 109 141 150 144 142 147 143 137 137 144 159 161 163 162 163 165 161 162
80 124 234 238 265 4 5 350 358 168 182 173 190 189 230 264 35 65 82 80 77 84 86 107 111 97 92 106 135 143 141 139 140 136 140 155 157 151 150 152 156 156 161 173
68 129 349 325 0 38 21 17 16 65 126 139 131 119 325 75 84 74 69 76 74 65 57 66 85 93 99 120 136 141 148 144 136 139 147 143 142 150 155 159 159 157 179 186
82 121 107 264 300 11 356 341 42 95 42 139 170 197 125 87 76 91 90 72 74 76 75 70 72 113 133 145 147 153 166 140 130 140 147 149 152 157 170 176 161 181 194 187
147 120 130 181 35 208 248 275 93 97 50 52 97 125 132 133 140 118 103 92 62 29 48 56 66 54 91 92 101 142 142 142 143 146 150 156 159 162 162 157 177 204 205 205
142 141 130 130 144 205 287 315 290 113 24 28 90 91 89 89 68 32 38 73 92 25 310 184 153 139 137 134 130 130 133 142 150 160 168 176 169 168 175 191 202 201 193 213
66 96 115 130 152 200 266 305 304 107 18 349 68 91 78 54 60 298 341 54 58 33 2 354 134 129 150 176 147 132 152 157 186 194 189 181 174 174 184 201 210 213 202 217
33 46 89 122 150 242 292 323 17 106 238 295 50 120 112 149 199 222 145 81 67 33 19 17 103 136 200 179 143 140 152 199 213 197 185 174 173 182 189 194 198 209 219 219
108 101 113 119 132 256 310 27 85 209 233 304 316 168 165 202 153 137 115 99 67 31 15 13 15 339 278 177 146 158 208 223 207 178 173 180 184 190 190 192 211 207 197 218
85 162 164 161 197 232 284 151 196 165 139 227 231 255 160 142 135 148 122 100 64 31 8 1 355 339 335 209 166 180 226 224 177 156 193 198 195 202 185 188 200 209 207 206
342 61 98 98 242 261 13 103 117 143 169 236 215 150 122 136 137 133 127 94 50 9 3 4 44 20 316 283 229 202 203 183 169 190 222 201 190 210 209 205 204 204 210 212
251 110 109 194 248 326 314 302 195 179 89 71 94 129 146 144 138 145 144 100 299 327 331 340 291 273 277 286 265 238 191 168 179 206 215 212 199 203 211 223 222 218 217 211
254 181 176 218 226 204 242 246 214 165 153 139 123 111 135 148 154 148 149 202 239 292 303 304 285 277 279 294 290 277 232 186 186 215 223 213 205 211 210 219 272 268 245 244